Dewpoint
35 29 26 28 29 29 31 26 25 32 39 36 35 35 37 39 40 41 45 46 51 54 58 58 57 61 61 60 58 60 58 57 62 64 64 64 63 63 64 63 62 62 62 61
30 27 33 29 29 30 30 27 28 33 38 36 36 35 38 40 40 41 44 45 46 49 54 57 59 61 61 60 58 59 60 59 60 63 63 64 64 64 64 65 64 63 62 61
28 31 36 33 31 30 27 29 32 32 37 38 36 33 36 39 42 42 43 44 44 44 45 49 57 60 60 60 59 59 60 60 61 64 64 63 64 63 63 64 64 64 63 63
30 35 34 32 30 33 29 33 33 35 34 30 38 26 34 38 39 40 38 40 42 42 42 42 44 49 57 60 61 60 61 61 62 63 62 62 61 60 60 61 63 62 63 62
32 34 32 32 32 35 29 36 34 35 33 32 33 29 32 36 37 38 35 37 39 40 42 42 41 42 44 48 57 61 62 62 62 62 62 62 61 61 61 62 61 59 59 59
32 37 36 37 38 36 37 35 35 33 30 23 30 26 25 32 35 34 32 35 36 39 40 40 40 41 41 42 42 49 58 60 62 63 63 62 61 61 61 60 60 58 57 56
33 34 39 39 36 36 32 28 23 18 18 20 28 26 26 29 34 31 30 28 30 34 37 38 38 39 40 40 41 41 45 51 59 61 61 62 62 61 60 60 58 56 54 53
27 27 35 38 36 33 31 27 20 15 19 22 30 24 25 25 28 29 30 30 33 33 35 36 36 37 38 39 39 40 43 46 55 58 59 60 60 60 59 59 57 56 55 54
27 29 36 38 38 37 30 24 26 22 22 23 24 24 20 24 25 25 25 27 30 32 33 33 37 39 39 39 38 39 42 46 53 55 55 56 57 58 58 57 57 55 54 53
29 29 34 34 38 36 31 28 21 21 14 15 18 19 18 21 22 25 28 28 28 29 30 31 33 38 42 42 43 43 44 46 51 54 53 53 53 54 55 55 55 54 53 51
28 28 29 31 32 32 31 27 25 23 19 12 12 16 20 23 23 26 29 31 32 32 32 33 35 37 41 43 44 44 45 47 48 49 49 50 51 52 52 53 52 51 49 47
30 28 28 30 32 34 33 31 24 17 17 18 16 18 22 28 29 29 30 30 30 31 32 33 34 36 38 41 43 44 45 46 47 47 46 47 47 48 48 47 45 44 43 42
29 25 22 21 23 28 29 31 27 25 22 19 13 18 24 27 27 25 26 29 30 30 31 31 32 34 36 39 41 43 44 45 45 45 45 44 44 44 44 43 42 41 41 40
30 25 19 16 21 27 26 30 30 26 18 21 19 20 23 27 29 30 30 28 28 30 32 31 31 32 35 37 40 42 43 44 45 45 44 43 43 43 42 41 41 40 40 39
28 26 25 26 28 27 29 29 29 26 26 22 25 24 27 29 29 29 29 31 31 31 31 31 32 33 34 36 38 40 42 44 44 44 43 43 42 41 41 40 40 39 38 38
29 26 24 24 25 25 25 26 27 28 29 29 28 27 28 28 30 31 31 32 32 32 32 33 33 33 34 34 35 37 40 42 44 43 43 43 41 40 40 39 39 38 38 38
28 26 22 21 24 21 18 21 24 26 27 27 22 25 30 31 32 32 31 32 33 33 33 34 35 35 35 36 36 36 37 39 42 43 42 42 41 40 39 39 38 38 38 37
28 26 25 21 16 5 17 22 23 23 24 26 28 30 31 31 32 32 33 33 33 34 34 35 35 36 36 37 37 37 37 38 40 41 42 41 40 39 39 38 38 37 36 36
29 26 22 17 16 15 21 24 23 21 24 30 30 31 32 33 31 29 33 35 35 35 35 36 36 36 37 37 37 37 38 39 39 40 41 41 40 39 38 37 37 36 36 36
27 26 22 22 14 3 16 27 28 23 20 30 31 31 31 32 26 28 34 35 35 36 36 36 37 37 37 37 38 38 38 38 39 39 40 41 40 39 38 38 37 36 36 35
25 25 24 23 20 20 23 27 27 19 15 31 32 32 33 30 31 34 36 36 36 36 37 38 38 38 38 38 38 37 38 38 39 40 41 41 40 39 39 37 36 36 35 35
22 21 23 24 22 11 29 26 23 27 31 31 33 32 31 32 32 32 32 31 30 31 32 34 35 38 38 39 38 37 37 39 39 40 40 40 40 39 38 37 36 35 35 34
22 22 20 23 20 26 31 30 33 32 29 32 31 30 30 30 31 30 29 29 30 30 30 31 33 34 37 39 38 37 37 38 39 40 40 39 39 38 37 36 36 35 35 35
26 27 24 23 25 30 31 33 32 33 31 30 30 30 30 30 30 28 29 29 30 32 34 36 37 37 38 38 39 38 37 38 39 39 39 39 38 38 37 36 36 36 35 34
25 28 26 25 27 29 31 32 30 31 30 29 30 30 30 30 30 29 29 30 32 33 36 37 38 38 38 38 38 38 37 38 39 39 39 38 38 38 36 36 36 36 36 35
29 28 25 21 27 26 29 31 31 26 26 28 29 29 29 30 30 30 30 31 32 33 35 36 38 37 37 38 39 38 38 39 39 38 38 38 38 38 37 36 36 37 36 37
Wind_Speed
5 6 11 16 16 2 3 14 16 7 14 11 8 1 8 16 17 23 14 10 9 17 14 15 9 15 18 12 15 6 9 17 11 8 11 7 12 11 8 8 10 13 13 14
6 14 11 14 14 11 4 15 11 11 13 5 8 2 7 9 17 19 13 8 7 8 14 20 19 18 26 27 26 14 20 17 18 13 12 8 6 3 6 13 13 14 14 15
14 5 12 11 10 12 11 17 13 17 13 11 7 8 10 11 14 11 15 8 2 9 16 16 16 15 21 26 24 29 26 22 18 15 10 5 6 4 5 7 8 7 7 7
9 6 11 12 10 13 13 14 20 21 8 9 3 2 7 4 6 15 10 5 2 2 6 9 10 8 9 15 27 28 26 27 20 11 14 13 14 11 10 9 2 7 7 6
5 6 5 7 10 16 5 13 25 13 16 15 2 3 6 2 4 12 8 2 4 3 4 5 6 6 5 4 9 10 14 21 23 24 26 25 18 17 20 14 4 8 11 12
4 1 2 1 4 8 17 13 9 5 2 7 3 2 3 3 1 7 8 6 7 7 6 6 2 4 5 5 8 10 11 13 11 13 15 16 17 18 15 14 12 11 9 11
4 5 2 4 11 4 9 7 4 4 5 4 3 3 6 3 3 7 9 13 11 11 9 6 6 6 6 6 7 9 12 13 9 11 11 10 11 10 13 15 14 15 13 12
11 7 10 11 4 5 5 1 4 7 7 6 2 6 4 4 10 7 7 7 6 6 3 2 5 9 10 8 5 7 10 10 7 7 8 8 8 7 10 14 15 14 15 15
3 7 5 10 7 3 5 7 1 9 4 6 3 1 3 9 15 12 12 9 10 11 10 8 6 5 7 8 8 7 8 8 8 7 5 5 5 8 11 13 13 13 13 14
3 5 5 4 4 7 1 0 1 4 5 6 6 4 5 12 10 9 12 12 11 9 9 7 7 6 5 5 6 4 5 8 10 11 9 9 8 8 8 9 12 13 12 12
3 3 1 3 6 4 4 2 7 5 3 6 6 3 3 8 3 5 9 9 9 9 8 7 7 9 7 5 4 3 1 4 6 6 7 8 8 9 9 10 11 13 13 13
4 4 7 3 4 3 3 4 3 4 4 7 6 3 4 2 3 6 7 7 8 9 10 9 9 9 10 10 6 3 2 4 5 6 7 8 9 10 11 13 12 12 12 10
2 5 3 4 1 3 6 5 6 6 3 4 5 5 2 4 6 7 8 4 5 8 11 8 8 8 9 10 7 5 1 3 6 8 8 9 10 11 11 11 12 14 15 14
4 5 4 4 2 2 4 5 5 4 5 4 4 4 1 11 12 14 11 10 11 13 11 8 9 8 8 9 10 10 7 4 4 6 8 9 11 12 13 13 14 14 13 15
4 6 5 7 5 5 5 5 4 5 4 3 1 2 10 13 12 12 11 12 11 12 13 12 13 12 9 8 8 9 11 10 6 7 10 12 11 10 12 14 14 13 12 11
5 3 2 5 6 4 3 2 3 3 3 1 2 3 6 10 9 14 14 13 14 15 15 15 15 16 15 12 8 7 7 10 10 13 15 11 12 12 13 13 14 15 14 13
3 4 2 2 5 2 4 3 1 2 2 1 2 3 8 10 14 16 16 16 16 15 14 17 17 15 14 14 13 13 11 6 12 16 16 17 16 16 16 15 15 15 15 14
4 4 3 2 2 2 2 5 2 5 8 7 5 9 9 10 12 1 8 15 17 19 19 20 18 18 16 14 14 11 12 12 12 15 18 18 20 21 19 19 19 17 16 17
6 4 5 2 1 2 2 2 1 1 1 7 4 8 9 16 10 4 8 15 14 16 18 17 17 17 16 18 15 11 13 12 12 16 18 21 21 21 22 22 20 17 17 14
7 8 4 2 0 3 3 1 1 1 5 2 3 7 11 13 16 16 15 21 23 24 22 21 22 19 19 22 11 13 17 12 15 18 18 18 21 21 24 22 22 16 15 16
1 2 3 3 2 5 5 2 1 2 1 2 3 7 8 7 9 16 21 23 23 23 24 23 22 24 23 22 18 20 18 18 17 12 14 17 20 22 21 20 16 18 15 13
7 7 5 3 3 4 4 3 5 2 2 2 3 6 10 12 17 19 20 22 21 23 23 23 24 25 24 21 18 23 23 19 13 12 14 18 19 19 19 21 17 17 16 15
5 6 4 10 5 3 2 3 6 4 0 0 5 9 11 15 16 19 19 22 23 24 24 23 23 26 26 21 18 23 27 16 14 11 15 17 17 18 19 21 20 18 17 15
4 4 4 3 5 8 7 6 5 3 2 4 6 9 11 15 17 21 22 22 23 23 24 24 26 26 24 19 21 22 23 17 15 12 13 14 17 17 17 16 18 18 18 16
5 9 6 5 5 3 4 8 5 4 2 4 6 6 13 15 19 19 21 21 23 25 24 24 24 25 28 24 25 21 17 13 14 10 11 13 14 17 16 14 17 17 14 17
11 10 11 9 10 5 6 12 7 3 2 3 7 10 11 14 18 19 21 22 23 24 26 26 25 27 27 26 23 15 9 10 11 10 11 13 14 14 15 17 12 9 13 16
Wind_Direction
203 228 230 205 199 242 43 179 174 179 154 142 198 5 313 305 308 294 298 285 179 160 157 158 225 160 163 200 219 203 167 211 225 197 190 187 203 224 228 224 212 209 219 223
240 248 244 209 206 230 226 192 166 133 147 118 156 47 288 293 276 268 289 281 127 145 142 180 188 190 183 186 203 206 238 228 223 211 204 197 175 166 191 208 211 217 213 209
246 280 172 167 189 188 230 200 154 136 116 83 95 23 285 253 246 302 268 256 207 142 141 155 180 177 184 187 189 211 221 226 234 214 171 137 118 187 198 229 230 221 211 211
239 226 170 168 211 188 179 195 147 146 157 94 45 243 273 268 291 257 283 240 200 146 128 131 149 163 204 187 189 205 206 213 222 203 228 203 212 228 255 283 151 132 121 107
72 135 145 155 182 192 179 155 143 155 112 120 75 73 296 310 232 274 281 246 261 230 177 165 161 164 205 218 204 210 200 202 210 211 213 228 206 196 229 241 220 137 124 118
97 347 178 292 182 204 133 119 111 110 121 67 112 115 53 72 46 309 5 329 288 269 247 246 257 186 192 204 202 208 219 237 224 209 206 209 208 211 200 202 195 179 143 125
140 82 194 44 103 74 115 122 108 60 67 97 301 72 35 7 49 288 306 305 288 253 239 259 291 287 262 230 215 214 216 224 217 214 213 210 212 194 196 192 175 167 156 143
38 57 15 359 63 120 77 115 165 141 133 163 235 55 31 357 59 34 23 343 297 237 228 290 328 306 297 294 273 225 224 227 212 205 209 208 207 187 187 182 175 183 171 159
68 52 29 27 31 7 336 45 321 103 84 101 14 10 108 58 66 56 54 54 64 83 70 63 42 2 330 307 291 250 225 212 200 200 185 189 186 187 187 178 171 169 157 159
76 92 22 24 62 327 13 40 112 44 109 86 46 60 6 354 15 37 56 54 52 57 63 37 16 13 6 345 332 285 227 215 190 174 174 176 172 172 174 169 169 163 156 157
33 44 31 20 28 3 16 24 57 103 48 113 106 21 316 314 332 49 65 59 52 51 47 36 18 360 1 31 32 342 265 194 177 170 166 164 161 163 159 166 161 155 154 162
9 84 68 77 287 280 22 32 50 59 43 61 95 55 342 28 89 109 58 44 45 29 4 359 4 0 2 2 14 79 161 195 198 182 170 172 165 158 158 156 147 142 139 138
15 39 71 16 77 91 53 31 56 78 97 47 95 149 105 59 55 38 20 13 6 358 353 338 341 347 345 344 350 337 294 194 184 174 170 169 170 167 164 157 145 145 144 146
85 59 81 114 26 332 55 42 33 69 58 124 51 126 120 18 358 343 354 346 329 329 337 350 353 340 329 327 327 323 310 285 218 190 188 189 182 177 171 165 159 157 154 153
72 87 77 62 50 53 62 37 31 67 122 74 108 284 334 354 347 337 336 346 344 341 342 351 352 353 353 342 323 311 297 290 268 235 213 207 196 186 175 169 163 157 156 153
27 109 89 54 28 41 105 72 61 78 106 253 278 319 2 351 19 13 3 7 8 1 359 358 354 348 342 338 326 295 270 259 247 239 237 222 203 191 187 176 169 164 157 154
52 122 74 90 344 32 74 36 65 95 149 138 83 40 8 3 355 3 359 10 4 356 350 343 335 327 321 319 315 313 310 282 231 230 228 217 205 197 191 183 174 170 169 159
111 96 69 112 359 112 231 302 236 84 41 22 52 31 22 349 319 81 51 18 354 344 336 331 325 320 310 300 301 300 300 288 260 239 222 209 198 193 185 180 180 177 174 173
58 100 79 84 34 283 86 26 83 162 26 28 41 3 347 343 325 264 6 358 322 307 298 297 301 302 301 296 290 290 291 284 274 256 234 214 201 190 182 184 182 180 175 174
53 71 94 95 52 213 201 256 16 75 250 33 25 354 346 353 331 303 327 326 315 312 311 310 311 306 306 303 280 283 282 277 269 256 240 212 196 192 188 185 179 181 178 173
95 34 155 157 251 276 233 274 164 217 226 337 351 340 335 313 276 294 305 306 310 311 306 305 307 303 302 302 298 288 279 271 268 258 236 212 196 194 190 176 177 168 164 159
186 165 180 143 201 272 189 152 197 147 134 342 340 313 305 296 299 301 303 306 311 309 311 308 306 297 297 297 295 287 277 273 269 258 225 208 198 185 174 174 164 161 163 168
213 195 191 194 216 171 154 147 119 106 126 333 299 300 308 295 293 300 306 311 311 309 304 300 295 290 286 285 286 284 277 275 280 250 222 205 188 177 170 169 166 167 171 174
230 190 212 187 205 195 158 129 131 146 163 308 304 306 301 301 312 316 316 315 311 309 309 304 300 291 283 287 286 272 273 276 271 242 219 193 182 174 168 167 168 170 177 178
203 163 193 243 236 170 208 176 157 178 252 315 316 317 316 315 313 315 312 310 310 311 308 305 295 304 294 287 284 272 267 264 250 228 205 185 178 170 162 168 173 178 182 179
191 185 187 224 194 170 167 174 169 181 297 316 320 320 316 304 307 314 316 312 310 313 310 307 306 299 290 283 269 261 259 242 228 205 189 177 169 164 162 156 153 174 167 179